Back to catalog

STARLINK-33574

AliveCommunicationsVLEO
NORAD 62774·PAYLOAD·🇺🇸 United States

Launched Jan 21, 2025 from Vandenberg Space Force Base

Loading…

Next Passes (next 24 hours)

TLE

FreshSource: CelesTrak SupGP

Epoch: Sep 14, 2026, 22:19 UTC

1 62774C 25015S   26257.93034722 -.00054044  00000+0 -15965-2 0  2574
2 62774  53.1564 159.4991 0000997 102.8818 145.3967 15.34422401    15

Track STARLINK-33574 in real time with AllMySat

Download on the App Store